Saint Bonnet de Bellac- Haute Vienne - France
Donnes mto: mercredi, 11/07/2012
Date Horaire Temp. E. Hum. E. P.atmo. Pluie Vent Direction Direction Ensoleilleme Solaire P. de rose Temp au vent Rafales
11/07/2012 00:00 14,8 C 73 % 1017,8 hPa 0,0 mm 1,1 km/h (1 Bft) O 270 0 min 0 W/m 10,0 C 14,8 C 4,0 km/h (1 Bft)
11/07/2012 00:10 14,8 C 73 % 1017,9 hPa 0,0 mm 3,6 km/h (1 Bft) S-SO 202 0 min 0 W/m 10,0 C 14,8 C 4,3 km/h (1 Bft)
11/07/2012 00:20 14,8 C 73 % 1017,9 hPa 0,0 mm 0,4 km/h (0 Bft) S-SO 202 0 min 0 W/m 10,0 C 14,8 C 4,0 km/h (1 Bft)
11/07/2012 00:30 14,8 C 73 % 1017,9 hPa 0,0 mm 2,2 km/h (1 Bft) SO 225 0 min 0 W/m 10,0 C 14,8 C 3,6 km/h (1 Bft)
11/07/2012 00:40 14,6 C 74 % 1018,0 hPa 0,0 mm 4,3 km/h (1 Bft) SO 225 0 min 0 W/m 10,0 C 14,6 C 4,7 km/h (1 Bft)
11/07/2012 00:50 14,6 C 74 % 1018,0 hPa 0,0 mm 1,1 km/h (1 Bft) S-SO 202 0 min 0 W/m 10,0 C 14,6 C 4,3 km/h (1 Bft)
11/07/2012 01:00 14,6 C 75 % 1018,1 hPa 0,0 mm 1,8 km/h (1 Bft) S-SO 202 0 min 0 W/m 10,2 C 14,6 C 3,6 km/h (1 Bft)
11/07/2012 01:10 14,5 C 76 % 1018,1 hPa 0,0 mm 2,5 km/h (1 Bft) O-SO 247 0 min 0 W/m 10,3 C 14,5 C 4,0 km/h (1 Bft)
11/07/2012 01:20 14,4 C 76 % 1018,1 hPa 0,0 mm 1,4 km/h (1 Bft) S-SO 202 0 min 0 W/m 10,2 C 14,4 C 3,6 km/h (1 Bft)
11/07/2012 01:30 14,4 C 77 % 1018,2 hPa 0,0 mm 0,7 km/h (0 Bft) O-SO 247 0 min 0 W/m 10,4 C 14,4 C 4,0 km/h (1 Bft)
11/07/2012 01:40 14,3 C 78 % 1018,1 hPa 0,0 mm 2,9 km/h (1 Bft) S-SO 202 0 min 0 W/m 10,5 C 14,3 C 4,3 km/h (1 Bft)
11/07/2012 01:50 14,3 C 79 % 1018,2 hPa 0,0 mm 6,1 km/h (2 Bft) S-SO 202 0 min 0 W/m 10,7 C 14,3 C 7,6 km/h (2 Bft)
11/07/2012 02:00 14,2 C 79 % 1018,1 hPa 0,0 mm 1,4 km/h (1 Bft) S-SE 157 0 min 0 W/m 10,6 C 14,2 C 4,3 km/h (1 Bft)
11/07/2012 02:10 14,1 C 79 % 1018,1 hPa 0,0 mm 1,8 km/h (1 Bft) SO 225 0 min 0 W/m 10,5 C 14,1 C 1,8 km/h (1 Bft)
11/07/2012 02:20 14,0 C 80 % 1018,1 hPa 0,0 mm 2,5 km/h (1 Bft) O-SO 247 0 min 0 W/m 10,6 C 14,0 C 2,5 km/h (1 Bft)
11/07/2012 02:30 13,9 C 80 % 1018,0 hPa 0,0 mm 0,4 km/h (0 Bft) O-SO 247 0 min 0 W/m 10,5 C 13,9 C 0,4 km/h (0 Bft)
11/07/2012 02:40 13,9 C 80 % 1018,1 hPa 0,0 mm 0,0 km/h (0 Bft) O-SO 247 0 min 0 W/m 10,5 C 13,9 C 3,6 km/h (1 Bft)
11/07/2012 02:50 13,8 C 80 % 1018,0 hPa 0,0 mm 1,8 km/h (1 Bft) O-SO 247 0 min 0 W/m 10,4 C 13,8 C 4,0 km/h (1 Bft)
11/07/2012 03:02 13,8 C 81 % 1018,0 hPa 0,0 mm 2,5 km/h (1 Bft) SO 225 0 min 0 W/m 10,6 C 13,8 C 4,0 km/h (1 Bft)
11/07/2012 03:10 13,7 C 81 % 1018,0 hPa 0,0 mm 2,5 km/h (1 Bft) SO 225 0 min 0 W/m 10,5 C 13,7 C 4,0 km/h (1 Bft)
11/07/2012 03:20 13,6 C 81 % 1018,0 hPa 0,0 mm 4,3 km/h (1 Bft) SO 225 0 min 0 W/m 10,4 C 13,6 C 6,8 km/h (2 Bft)
11/07/2012 03:30 13,6 C 81 % 1018,0 hPa 0,0 mm 4,0 km/h (1 Bft) S-SO 202 0 min 0 W/m 10,4 C 13,6 C 6,8 km/h (2 Bft)
11/07/2012 03:40 13,6 C 81 % 1018,1 hPa 0,0 mm 2,2 km/h (1 Bft) SO 225 0 min 0 W/m 10,4 C 13,6 C 3,6 km/h (1 Bft)
11/07/2012 03:50 13,4 C 81 % 1018,1 hPa 0,0 mm 6,1 km/h (2 Bft) S-SO 202 0 min 0 W/m 10,2 C 13,4 C 6,8 km/h (2 Bft)
11/07/2012 04:00 13,3 C 81 % 1018,2 hPa 0,0 mm 4,0 km/h (1 Bft) O-SO 247 0 min 0 W/m 10,1 C 13,3 C 7,6 km/h (2 Bft)
11/07/2012 04:10 13,1 C 82 % 1018,2 hPa 0,0 mm 4,3 km/h (1 Bft) S-SO 202 0 min 0 W/m 10,1 C 13,1 C 7,9 km/h (2 Bft)
11/07/2012 04:20 13,1 C 82 % 1018,1 hPa 0,0 mm 4,7 km/h (1 Bft) S-SO 202 0 min 0 W/m 10,1 C 13,1 C 9,0 km/h (2 Bft)
11/07/2012 04:30 13,1 C 82 % 1018,1 hPa 0,0 mm 5,0 km/h (1 Bft) S-SO 202 0 min 0 W/m 10,1 C 13,1 C 5,0 km/h (1 Bft)
11/07/2012 04:40 13,1 C 83 % 1018,0 hPa 0,0 mm 2,2 km/h (1 Bft) S 180 0 min 0 W/m 10,3 C 13,1 C 3,6 km/h (1 Bft)
11/07/2012 04:50 13,1 C 82 % 1018,0 hPa 0,0 mm 2,9 km/h (1 Bft) S-SO 202 0 min 0 W/m 10,1 C 13,1 C 6,8 km/h (2 Bft)
11/07/2012 05:00 13,1 C 83 % 1018,0 hPa 0,0 mm 5,0 km/h (1 Bft) SO 225 0 min 0 W/m 10,3 C 13,1 C 5,0 km/h (1 Bft)
11/07/2012 05:10 13,1 C 83 % 1018,0 hPa 0,0 mm 3,6 km/h (1 Bft) S 180 0 min 0 W/m 10,3 C 13,1 C 4,0 km/h (1 Bft)
11/07/2012 05:20 13,1 C 83 % 1018,1 hPa 0,0 mm 1,8 km/h (1 Bft) S-SO 202 0 min 0 W/m 10,3 C 13,1 C 3,2 km/h (1 Bft)
11/07/2012 05:30 13,1 C 83 % 1018,0 hPa 0,0 mm 3,2 km/h (1 Bft) S-SO 202 0 min 0 W/m 10,3 C 13,1 C 8,3 km/h (2 Bft)
11/07/2012 05:40 13,1 C 83 % 1018,0 hPa 0,0 mm 1,1 km/h (1 Bft) O-SO 247 0 min 0 W/m 10,3 C 13,1 C 4,3 km/h (1 Bft)
11/07/2012 05:50 13,1 C 83 % 1018,1 hPa 0,0 mm 0,4 km/h (0 Bft) SO 225 0 min 0 W/m 10,3 C 13,1 C 0,4 km/h (0 Bft)
11/07/2012 06:00 13,1 C 83 % 1018,1 hPa 0,0 mm 2,2 km/h (1 Bft) SO 225 0 min 0 W/m 10,3 C 13,1 C 4,0 km/h (1 Bft)
11/07/2012 06:10 13,1 C 83 % 1018,1 hPa 0,0 mm 1,8 km/h (1 Bft) O-SO 247 0 min 0 W/m 10,3 C 13,1 C 6,5 km/h (2 Bft)
11/07/2012 06:20 13,1 C 83 % 1018,0 hPa 0,0 mm 4,0 km/h (1 Bft) SO 225 0 min 0 W/m 10,3 C 13,1 C 8,6 km/h (2 Bft)
11/07/2012 06:30 13,1 C 83 % 1017,9 hPa 0,0 mm 2,9 km/h (1 Bft) SO 225 0 min 0 W/m 10,3 C 13,1 C 6,1 km/h (2 Bft)
11/07/2012 06:40 13,1 C 83 % 1018,0 hPa 0,0 mm 1,4 km/h (1 Bft) SO 225 0 min 0 W/m 10,3 C 13,1 C 3,2 km/h (1 Bft)
11/07/2012 06:50 13,1 C 83 % 1018,0 hPa 0,0 mm 3,6 km/h (1 Bft) SO 225 0 min 0 W/m 10,3 C 13,1 C 6,8 km/h (2 Bft)
11/07/2012 07:00 13,1 C 83 % 1018,1 hPa 0,0 mm 4,7 km/h (1 Bft) S-SO 202 0 min 0 W/m 10,3 C 13,1 C 7,6 km/h (2 Bft)
11/07/2012 07:10 13,1 C 83 % 1018,1 hPa 0,0 mm 0,7 km/h (0 Bft) SO 225 0 min 0 W/m 10,3 C 13,1 C 3,6 km/h (1 Bft)
11/07/2012 07:20 13,2 C 83 % 1018,1 hPa 0,0 mm 2,5 km/h (1 Bft) O-SO 247 0 min 0 W/m 10,4 C 13,2 C 3,2 km/h (1 Bft)
11/07/2012 07:30 13,2 C 83 % 1018,1 hPa 0,0 mm 3,2 km/h (1 Bft) S-SO 202 0 min 0 W/m 10,4 C 13,2 C 4,0 km/h (1 Bft)
11/07/2012 07:40 13,3 C 83 % 1018,1 hPa 0,0 mm 5,0 km/h (1 Bft) SO 225 0 min 0 W/m 10,5 C 13,3 C 5,0 km/h (1 Bft)
11/07/2012 07:50 13,4 C 82 % 1018,1 hPa 0,0 mm 3,2 km/h (1 Bft) S-SO 202 0 min 0 W/m 10,4 C 13,4 C 4,3 km/h (1 Bft)
11/07/2012 08:00 13,6 C 82 % 1018,2 hPa 0,0 mm 2,2 km/h (1 Bft) O-SO 247 0 min 0 W/m 10,6 C 13,6 C 4,3 km/h (1 Bft)
11/07/2012 08:10 13,8 C 81 % 1018,2 hPa 0,0 mm 1,1 km/h (1 Bft) SO 225 0 min 0 W/m 10,6 C 13,8 C 3,6 km/h (1 Bft)
11/07/2012 08:20 14,0 C 81 % 1018,3 hPa 0,0 mm 2,2 km/h (1 Bft) O-SO 247 0 min 0 W/m 10,8 C 14,0 C 3,6 km/h (1 Bft)
11/07/2012 08:30 14,2 C 80 % 1018,3 hPa 0,0 mm 5,0 km/h (1 Bft) O-SO 247 0 min 0 W/m 10,8 C 14,2 C 11,9 km/h (2 Bft)
11/07/2012 08:40 14,3 C 80 % 1018,4 hPa 0,0 mm 4,7 km/h (1 Bft) O-SO 247 0 min 0 W/m 10,9 C 14,3 C 4,7 km/h (1 Bft)
11/07/2012 08:50 14,4 C 80 % 1018,4 hPa 0,0 mm 3,6 km/h (1 Bft) O-SO 247 0 min 0 W/m 11,0 C 14,4 C 3,6 km/h (1 Bft)
11/07/2012 09:00 14,5 C 79 % 1018,5 hPa 0,0 mm 5,0 km/h (1 Bft) SO 225 0 min 0 W/m 10,9 C 14,5 C 7,2 km/h (2 Bft)
11/07/2012 09:10 14,6 C 79 % 1018,6 hPa 0,0 mm 2,9 km/h (1 Bft) SO 225 0 min 0 W/m 11,0 C 14,6 C 6,5 km/h (2 Bft)
11/07/2012 09:20 14,8 C 79 % 1018,7 hPa 0,0 mm 0,0 km/h (0 Bft) SO 225 0 min 0 W/m 11,2 C 14,8 C 0,0 km/h (0 Bft)
11/07/2012 09:30 14,9 C 79 % 1018,8 hPa 0,0 mm 5,8 km/h (2 Bft) S-SO 202 0 min 0 W/m 11,3 C 14,9 C 10,4 km/h (2 Bft)
11/07/2012 09:40 15,2 C 79 % 1018,9 hPa 0,0 mm 5,0 km/h (1 Bft) SO 225 0 min 0 W/m 11,6 C 15,2 C 10,1 km/h (2 Bft)
11/07/2012 09:50 15,4 C 78 % 1018,8 hPa 0,0 mm 5,8 km/h (2 Bft) SO 225 0 min 0 W/m 11,6 C 15,4 C 7,9 km/h (2 Bft)
11/07/2012 10:00 15,5 C 78 % 1018,9 hPa 0,0 mm 4,3 km/h (1 Bft) SO 225 0 min 0 W/m 11,7 C 15,5 C 7,6 km/h (2 Bft)
11/07/2012 10:10 15,6 C 78 % 1018,9 hPa 0,0 mm 2,9 km/h (1 Bft) S 180 0 min 0 W/m 11,8 C 15,6 C 4,3 km/h (1 Bft)
11/07/2012 10:20 15,8 C 78 % 1019,1 hPa 0,0 mm 2,2 km/h (1 Bft) O 270 0 min 0 W/m 12,0 C 15,8 C 4,3 km/h (1 Bft)
11/07/2012 10:30 15,6 C 78 % 1019,1 hPa 0,0 mm 0,7 km/h (0 Bft) SO 225 0 min 0 W/m 11,8 C 15,6 C 0,7 km/h (0 Bft)
11/07/2012 10:40 15,5 C 80 % 1019,0 hPa 0,0 mm 4,0 km/h (1 Bft) NO 315 0 min 0 W/m 12,1 C 15,5 C 10,4 km/h (2 Bft)
11/07/2012 10:50 15,8 C 80 % 1019,1 hPa 0,0 mm 0,0 km/h (0 Bft) O-NO 292 0 min 0 W/m 12,4 C 15,8 C 2,9 km/h (1 Bft)
11/07/2012 11:00 16,4 C 79 % 1019,1 hPa 0,0 mm 4,3 km/h (1 Bft) SO 225 0 min 0 W/m 12,7 C 16,4 C 9,4 km/h (2 Bft)
11/07/2012 11:10 16,5 C 75 % 1019,1 hPa 0,0 mm 4,3 km/h (1 Bft) S-SO 202 0 min 0 W/m 12,1 C 16,5 C 6,5 km/h (2 Bft)
11/07/2012 11:20 17,0 C 75 % 1019,2 hPa 0,0 mm 5,4 km/h (2 Bft) O-SO 247 0 min 0 W/m 12,5 C 17,0 C 10,1 km/h (2 Bft)
11/07/2012 11:30 17,1 C 73 % 1019,1 hPa 0,0 mm 5,0 km/h (1 Bft) O 270 0 min 0 W/m 12,2 C 17,1 C 6,5 km/h (2 Bft)
11/07/2012 11:40 17,3 C 72 % 1019,3 hPa 0,0 mm 4,0 km/h (1 Bft) O-SO 247 0 min 0 W/m 12,2 C 17,3 C 10,1 km/h (2 Bft)
11/07/2012 11:50 17,3 C 73 % 1019,2 hPa 0,0 mm 4,0 km/h (1 Bft) O-SO 247 0 min 0 W/m 12,4 C 17,3 C 4,0 km/h (1 Bft)
11/07/2012 12:00 17,2 C 73 % 1019,4 hPa 0,0 mm 9,0 km/h (2 Bft) SO 225 0 min 0 W/m 12,3 C 17,2 C 9,0 km/h (2 Bft)
11/07/2012 12:10 17,1 C 74 % 1019,4 hPa 0,0 mm 7,6 km/h (2 Bft) O 270 0 min 0 W/m 12,4 C 17,1 C 15,1 km/h (3 Bft)
11/07/2012 12:20 17,3 C 74 % 1019,5 hPa 0,0 mm 2,2 km/h (1 Bft) O 270 0 min 0 W/m 12,6 C 17,3 C 4,0 km/h (1 Bft)
11/07/2012 12:30 17,3 C 75 % 1019,5 hPa 0,0 mm 0,4 km/h (0 Bft) S-SO 202 0 min 0 W/m 12,8 C 17,3 C 3,2 km/h (1 Bft)
11/07/2012 12:40 17,4 C 74 % 1019,6 hPa 0,0 mm 6,8 km/h (2 Bft) O-NO 292 0 min 0 W/m 12,7 C 17,4 C 10,1 km/h (2 Bft)
11/07/2012 12:50 17,7 C 71 % 1019,5 hPa 0,0 mm 7,9 km/h (2 Bft) NO 315 0 min 0 W/m 12,4 C 17,7 C 10,8 km/h (2 Bft)
11/07/2012 13:00 17,9 C 71 % 1019,5 hPa 0,0 mm 7,2 km/h (2 Bft) SO 225 0 min 0 W/m 12,6 C 17,9 C 9,4 km/h (2 Bft)
11/07/2012 13:10 18,4 C 71 % 1019,5 hPa 0,0 mm 10,1 km/h (2 Bft) SO 225 0 min 0 W/m 13,0 C 18,4 C 15,5 km/h (3 Bft)
11/07/2012 13:20 18,6 C 68 % 1019,5 hPa 0,0 mm 4,7 km/h (1 Bft) SO 225 0 min 0 W/m 12,6 C 18,6 C 10,1 km/h (2 Bft)
11/07/2012 13:30 18,5 C 68 % 1019,6 hPa 0,0 mm 9,7 km/h (2 Bft) S 180 0 min 0 W/m 12,5 C 18,5 C 9,7 km/h (2 Bft)
11/07/2012 13:40 17,9 C 71 % 1019,8 hPa 0,0 mm 5,8 km/h (2 Bft) SO 225 0 min 0 W/m 12,6 C 17,9 C 5,8 km/h (2 Bft)
11/07/2012 13:50 17,0 C 72 % 1019,8 hPa 0,1 mm 6,8 km/h (2 Bft) SO 225 0 min 0 W/m 11,9 C 17,0 C 13,3 km/h (3 Bft)
11/07/2012 14:00 16,3 C 78 % 1019,8 hPa 0,0 mm 2,9 km/h (1 Bft) SO 225 0 min 0 W/m 12,5 C 16,3 C 3,2 km/h (1 Bft)
11/07/2012 14:10 16,5 C 79 % 1019,7 hPa 0,0 mm 2,5 km/h (1 Bft) SO 225 0 min 0 W/m 12,8 C 16,5 C 3,6 km/h (1 Bft)
11/07/2012 14:20 17,4 C 77 % 1019,6 hPa 0,0 mm 3,2 km/h (1 Bft) S-SO 202 0 min 0 W/m 13,3 C 17,4 C 6,8 km/h (2 Bft)
11/07/2012 14:30 18,1 C 74 % 1019,6 hPa 0,0 mm 9,4 km/h (2 Bft) S-SO 202 0 min 0 W/m 13,4 C 18,1 C 13,3 km/h (3 Bft)
11/07/2012 14:40 18,8 C 70 % 1019,5 hPa 0,0 mm 15,5 km/h (3 Bft) S-SE 157 0 min 0 W/m 13,2 C 18,8 C 16,2 km/h (3 Bft)
11/07/2012 14:50 19,2 C 68 % 1019,5 hPa 0,0 mm 6,1 km/h (2 Bft) S-SO 202 0 min 0 W/m 13,1 C 19,2 C 10,1 km/h (2 Bft)
11/07/2012 15:00 19,2 C 68 % 1019,4 hPa 0,0 mm 6,8 km/h (2 Bft) S-SO 202 0 min 0 W/m 13,1 C 19,2 C 12,6 km/h (3 Bft)
11/07/2012 15:10 19,4 C 68 % 1019,4 hPa 0,0 mm 3,6 km/h (1 Bft) S-SO 202 0 min 0 W/m 13,3 C 19,4 C 4,3 km/h (1 Bft)
11/07/2012 15:20 19,6 C 65 % 1019,3 hPa 0,0 mm 9,4 km/h (2 Bft) O-SO 247 0 min 0 W/m 12,8 C 19,6 C 10,4 km/h (2 Bft)
11/07/2012 15:30 19,4 C 66 % 1019,4 hPa 0,0 mm 1,8 km/h (1 Bft) O-SO 247 0 min 0 W/m 12,9 C 19,4 C 4,3 km/h (1 Bft)
11/07/2012 15:40 19,6 C 66 % 1019,3 hPa 0,0 mm 13,0 km/h (3 Bft) O 270 0 min 0 W/m 13,1 C 19,6 C 19,8 km/h (3 Bft)
11/07/2012 15:50 19,5 C 65 % 1019,2 hPa 0,0 mm 5,0 km/h (1 Bft) S-SO 202 0 min 0 W/m 12,7 C 19,5 C 7,9 km/h (2 Bft)
11/07/2012 16:00 19,6 C 65 % 1019,1 hPa 0,0 mm 6,5 km/h (2 Bft) S-SO 202 0 min 0 W/m 12,8 C 19,6 C 6,5 km/h (2 Bft)
11/07/2012 16:10 20,1 C 61 % 1019,1 hPa 0,0 mm 10,8 km/h (2 Bft) SO 225 0 min 0 W/m 12,3 C 20,1 C 15,5 km/h (3 Bft)
11/07/2012 16:20 20,1 C 62 % 1019,0 hPa 0,0 mm 2,9 km/h (1 Bft) O-SO 247 0 min 0 W/m 12,6 C 20,1 C 2,9 km/h (1 Bft)
11/07/2012 16:30 20,3 C 62 % 1018,9 hPa 0,0 mm 5,4 km/h (2 Bft) O-SO 247 0 min 0 W/m 12,8 C 20,3 C 10,4 km/h (2 Bft)
11/07/2012 16:40 20,4 C 60 % 1019,0 hPa 0,0 mm 4,7 km/h (1 Bft) O-SO 247 0 min 0 W/m 12,4 C 20,4 C 7,2 km/h (2 Bft)
11/07/2012 16:50 20,6 C 61 % 1019,0 hPa 0,0 mm 9,4 km/h (2 Bft) SO 225 0 min 0 W/m 12,8 C 20,6 C 9,4 km/h (2 Bft)
11/07/2012 17:00 20,8 C 61 % 1018,9 hPa 0,0 mm 4,7 km/h (1 Bft) O 270 0 min 0 W/m 13,0 C 20,8 C 8,3 km/h (2 Bft)
11/07/2012 17:10 20,8 C 59 % 1018,8 hPa 0,0 mm 8,6 km/h (2 Bft) SO 225 0 min 0 W/m 12,5 C 20,8 C 14,4 km/h (3 Bft)
11/07/2012 17:20 20,4 C 60 % 1018,8 hPa 0,0 mm 3,2 km/h (1 Bft) S-SO 202 0 min 0 W/m 12,4 C 20,4 C 8,3 km/h (2 Bft)
11/07/2012 17:30 20,8 C 61 % 1018,7 hPa 0,0 mm 1,4 km/h (1 Bft) O-SO 247 0 min 0 W/m 13,0 C 20,8 C 3,6 km/h (1 Bft)
11/07/2012 17:40 20,9 C 58 % 1018,8 hPa 0,0 mm 9,7 km/h (2 Bft) S-SO 202 0 min 0 W/m 12,3 C 20,9 C 15,5 km/h (3 Bft)
11/07/2012 17:50 21,3 C 58 % 1018,7 hPa 0,0 mm 7,9 km/h (2 Bft) S-SO 202 0 min 0 W/m 12,7 C 21,3 C 7,9 km/h (2 Bft)
11/07/2012 18:00 21,4 C 54 % 1018,6 hPa 0,0 mm 6,8 km/h (2 Bft) SO 225 0 min 0 W/m 11,7 C 21,4 C 15,5 km/h (3 Bft)
11/07/2012 18:10 21,4 C 55 % 1018,6 hPa 0,0 mm 6,8 km/h (2 Bft) O-SO 247 0 min 0 W/m 12,0 C 21,4 C 12,2 km/h (2 Bft)
11/07/2012 18:20 21,4 C 55 % 1018,6 hPa 0,0 mm 3,6 km/h (1 Bft) O-SO 247 0 min 0 W/m 12,0 C 21,4 C 9,7 km/h (2 Bft)
11/07/2012 18:30 21,4 C 55 % 1018,6 hPa 0,0 mm 0,7 km/h (0 Bft) O-SO 247 0 min 0 W/m 12,0 C 21,4 C 4,3 km/h (1 Bft)
11/07/2012 18:40 21,3 C 54 % 1018,6 hPa 0,0 mm 9,7 km/h (2 Bft) SO 225 0 min 0 W/m 11,6 C 21,3 C 11,5 km/h (2 Bft)
11/07/2012 18:50 21,1 C 55 % 1018,7 hPa 0,0 mm 6,8 km/h (2 Bft) S-SO 202 0 min 0 W/m 11,7 C 21,1 C 11,5 km/h (2 Bft)
11/07/2012 19:00 20,9 C 55 % 1018,5 hPa 0,0 mm 2,9 km/h (1 Bft) S-SO 202 0 min 0 W/m 11,5 C 20,9 C 4,3 km/h (1 Bft)
11/07/2012 19:10 20,9 C 56 % 1018,5 hPa 0,0 mm 2,2 km/h (1 Bft) SO 225 0 min 0 W/m 11,8 C 20,9 C 3,2 km/h (1 Bft)
11/07/2012 19:20 20,9 C 56 % 1018,5 hPa 0,0 mm 3,2 km/h (1 Bft) O 270 0 min 0 W/m 11,8 C 20,9 C 7,2 km/h (2 Bft)
11/07/2012 19:30 20,5 C 56 % 1018,5 hPa 0,0 mm 3,2 km/h (1 Bft) O-SO 247 0 min 0 W/m 11,4 C 20,5 C 6,5 km/h (2 Bft)
11/07/2012 19:40 20,6 C 58 % 1018,4 hPa 0,0 mm 1,1 km/h (1 Bft) SO 225 0 min 0 W/m 12,0 C 20,6 C 6,8 km/h (2 Bft)
11/07/2012 19:50 20,6 C 57 % 1018,5 hPa 0,0 mm 2,9 km/h (1 Bft) SO 225 0 min 0 W/m 11,8 C 20,6 C 8,6 km/h (2 Bft)
11/07/2012 20:00 20,4 C 57 % 1018,5 hPa 0,0 mm 4,0 km/h (1 Bft) S-SO 202 0 min 0 W/m 11,6 C 20,4 C 4,0 km/h (1 Bft)
11/07/2012 20:10 20,2 C 58 % 1018,6 hPa 0,0 mm 2,2 km/h (1 Bft) O-SO 247 0 min 0 W/m 11,7 C 20,2 C 7,9 km/h (2 Bft)
11/07/2012 20:20 19,9 C 59 % 1018,6 hPa 0,0 mm 5,4 km/h (2 Bft) O-SO 247 0 min 0 W/m 11,6 C 19,9 C 10,4 km/h (2 Bft)
11/07/2012 20:30 19,4 C 60 % 1018,7 hPa 0,0 mm 1,4 km/h (1 Bft) SO 225 0 min 0 W/m 11,4 C 19,4 C 1,4 km/h (1 Bft)
11/07/2012 20:40 19,0 C 60 % 1018,7 hPa 0,0 mm 7,2 km/h (2 Bft) S-SO 202 0 min 0 W/m 11,1 C 19,0 C 8,6 km/h (2 Bft)
11/07/2012 20:50 18,5 C 61 % 1018,7 hPa 0,0 mm 2,2 km/h (1 Bft) SO 225 0 min 0 W/m 10,8 C 18,5 C 4,0 km/h (1 Bft)
11/07/2012 21:00 18,1 C 62 % 1018,8 hPa 0,0 mm 8,3 km/h (2 Bft) O-SO 247 0 min 0 W/m 10,7 C 18,1 C 10,4 km/h (2 Bft)
11/07/2012 21:10 17,8 C 64 % 1018,9 hPa 0,0 mm 8,3 km/h (2 Bft) O 270 0 min 0 W/m 10,9 C 17,8 C 15,8 km/h (3 Bft)
11/07/2012 21:20 17,4 C 65 % 1018,9 hPa 0,0 mm 3,2 km/h (1 Bft) O-SO 247 0 min 0 W/m 10,8 C 17,4 C 4,3 km/h (1 Bft)
11/07/2012 21:30 17,1 C 66 % 1019,0 hPa 0,0 mm 2,9 km/h (1 Bft) SO 225 0 min 0 W/m 10,7 C 17,1 C 4,3 km/h (1 Bft)
11/07/2012 21:40 16,7 C 68 % 1019,2 hPa 0,0 mm 1,4 km/h (1 Bft) O-SO 247 0 min 0 W/m 10,8 C 16,7 C 6,1 km/h (2 Bft)
11/07/2012 21:50 16,3 C 68 % 1019,4 hPa 0,0 mm 5,8 km/h (2 Bft) SO 225 0 min 0 W/m 10,4 C 16,3 C 9,7 km/h (2 Bft)
11/07/2012 22:00 16,1 C 70 % 1019,5 hPa 0,0 mm 3,6 km/h (1 Bft) SO 225 0 min 0 W/m 10,6 C 16,1 C 4,0 km/h (1 Bft)
11/07/2012 22:10 15,8 C 71 % 1019,7 hPa 0,0 mm 5,0 km/h (1 Bft) O-SO 247 0 min 0 W/m 10,6 C 15,8 C 7,6 km/h (2 Bft)
11/07/2012 22:20 15,6 C 71 % 1019,7 hPa 0,0 mm 5,4 km/h (2 Bft) SO 225 0 min 0 W/m 10,4 C 15,6 C 9,0 km/h (2 Bft)
11/07/2012 22:30 15,4 C 73 % 1019,9 hPa 0,0 mm 6,8 km/h (2 Bft) SO 225 0 min 0 W/m 10,6 C 15,4 C 10,4 km/h (2 Bft)
11/07/2012 22:40 15,2 C 74 % 1019,9 hPa 0,0 mm 1,4 km/h (1 Bft) SO 225 0 min 0 W/m 10,6 C 15,2 C 6,1 km/h (2 Bft)
11/07/2012 22:50 14,9 C 74 % 1020,1 hPa 0,0 mm 2,5 km/h (1 Bft) O-SO 247 0 min 0 W/m 10,3 C 14,9 C 3,6 km/h (1 Bft)
_ Min-Heure 07:10 18:40 00:00 - 10:50 - - - - 00:30 07:10 09:20
Minimum _ 13,1 C 54 % 1017,8 hPa - 0,0 km/h (0 Bft) - - - - 10,0 C 13,1 C 0,0 km/h (0 Bft)
_ Max-Heure 18:30 07:40 22:50 13:50 14:40 - - 22:50 22:50 14:30 18:30 15:40
Maximum _ 21,4 C 83 % 1020,1 hPa 0,1 mm 15,5 km/h
S-SE (3 Bft)
- - 0 min 0 W/m 13,4 C 21,4 C 19,8 km/h
O (3 Bft)
Moyenne _ 16,5 C 73 % 1018,7 hPa #0,1 mm 4,2 km/h (1 Bft) SO - #0 min. 0 W/m 11,4 C 16,5 C 6,9 km/h (2 Bft)
Saint Bonnet de Bellac- Haute Vienne - France